Oldcastle, Ireland
Current Conditions -  °F | °C
As of 7:30 PM on Sunday 21 Dec 2014 (Local Time) from EIDW Reporting Station
Broken Clouds Broken Clouds  
Wind Chill: 55°   Ceiling: 1400
Heat Index: 55°   Visibility: 6mi
Dew Point: 50°   Wind: 25mph
Humidity: 82%   Direction: 230°SW
Pressure: 29.94"   Gusts: NA
Location:  53.77°N, 7.16°W
Report Text: EIDW 211830Z 23022KT 9999 FEW013 BKN014 BKN022 13/10 Q1014 NOSIG
Loading
Personal Weather Stations






























Interactive Weather Map New forecast layout! Learn more

10-Day Weather Forecast

Advertisements
Track Severe Weather on mobile